Location: Aufkirchen
(47.9603°N, 11.3653°E)
Time: 15:39:04
(UTC+01:00)

Transit 4A - Pass Details

Date: 30 November 2020
Orbit: 864 x 980 km, 66.8° (Epoch: 26 January)

Event Time Altitude Azimuth Distance (km) Brightness Sun altitude
Rises 07:13:54 0° 187° (S) 3,613 11.3 -4.9°
Reaches altitude 10° 07:16:34 10° 180° (S) 2,686 10.7 -4.6°
Maximum altitude 07:22:22 40° 113° (ESE) 1,397 9.7 -3.7°
Drops below altitude 10° 07:28:16 10° 46° (NE) 2,738 10.6 -2.8°
Sets 07:30:59 0° 39° (NE) 3,691 11.1 -2.4°
